Location: Dehesa de la Cepeda
(40.6574°N, 4.3013°W)
Time: 11:14:42
(UTC+00:00)

Vanguard 2 Rocket - Pass Details

Date: 29 October 2021
Orbit: 555 x 3324 km, 32.9° (Epoch: 09 December)

Event Time Altitude Azimuth Distance (km) Brightness Sun altitude
Exits shadow 02:05:04 28° 147° (SSE) 4,371 10.2 -51.6°
Drops below altitude 10° 02:16:18 10° 97° (E) 4,852 10.9 -49.9°
Sets 02:20:12 0° 86° (E) 5,472 11.4 -49.3°
